CUTE-1 (CO-55) 1 27844U 03031E 26036.17756861 .00000442 00000+0 21069-3 0 9990 2 27844 98.6774 46.3829 0009139 203.0782 156.9987 14.24237805172881 CUBESAT XI-IV (CO-57) 1 27848U 03031J 26035.95980955 .00000380 00000+0 18611-3 0 9992 2 27848 98.6803 45.9868 0008714 223.0239 137.0259 14.23537045172568 CUBESAT XI-V 1 28895U 05043F 26035.95701829 .00002744 00000+0 44319-3 0 9991 2 28895 98.2776 188.9782 0013162 264.4865 95.4840 14.72167972 82291 CUTE-1.7+APD II (CO-65) 1 32785U 08021C 26036.13603943 .00009014 00000+0 59093-3 0 9994 2 32785 97.8164 15.0501 0011065 112.9678 247.2718 15.07884497965285 CANX-2 1 32790U 08021H 26035.92053093 .00006449 00000+0 46525-3 0 9996 2 32790 97.8520 13.3433 0012414 123.9126 236.3282 15.04423009964910 SEEDS II (CO-66) 1 32791U 08021J 26035.92276247 .00027303 00000+0 10114-2 0 9991 2 32791 97.7489 28.0380 0005429 71.1184 289.0642 15.27604756967063 SWISSCUBE 1 35932U 09051B 26035.69947547 .00001679 00000+0 34344-3 0 9997 2 35932 98.4132 301.2528 0005557 266.6937 93.3628 14.62160983869793 BEESAT-1 1 35933U 09051C 26035.71046934 .00001410 00000+0 29462-3 0 9999 2 35933 98.4060 301.1700 0004105 284.7038 75.3707 14.61449802869838 ITUPSAT1 1 35935U 09051E 26036.13442350 .00001325 00000+0 28497-3 0 9992 2 35935 98.4149 300.9275 0006357 294.0004 66.0530 14.60192796869466 TISAT 1 1 36799U 10035E 26036.05355873 .00029511 00000+0 11463-2 0 9990 2 36799 98.0627 331.5511 0003325 39.5168 320.6311 15.26025940847517 AEROCUBE 4.5A 1 38767U 12048K 26035.62323704 .00085785 00000+0 11390-2 0 9997 2 38767 64.6394 134.6508 0050267 221.3435 138.3900 15.56217921351835 STRAND-1 1 39090U 13009E 26035.97945843 .00000490 00000+0 17948-3 0 9993 2 39090 98.3853 219.4896 0007574 265.7639 94.2682 14.37064439678079 BRITE-AUSTRIA 1 39091U 13009F 26035.72759878 .00000299 00000+0 11642-3 0 9990 2 39091 98.3920 218.4651 0009073 276.4706 83.5448 14.36475430678036 NEE-01 PEGASO 1 39151U 13018B 26035.92616166 .00005475 00000+0 53421-3 0 9993 2 39151 98.0999 175.9467 0011926 236.8525 123.1550 14.92817676690962 POPACS 2 1 39269U 13055E 26035.73752833 .00017863 00000+0 32045-3 0 9998 2 39269 80.9948 295.3177 0434743 258.1254 97.0910 14.86330482643508 POPACS 3 1 39270U 13055F 26035.98123291 .00009605 00000+0 23104-3 0 9998 2 39270 81.0037 12.2268 0564400 111.8277 254.3927 14.53068053619338 ZACUBE-1 (TSHEPISOSAT) 1 39417U 13066B 26036.11260409 .00009870 00000+0 78610-3 0 9998 2 39417 97.8172 357.7837 0041021 332.5270 27.3784 14.99905630660920 WNISAT-1 1 39423U 13066H 26036.02801124 .00001314 00000+0 24915-3 0 9994 2 39423 97.6982 194.7321 0162550 288.3513 70.0068 14.57761519647475 TRITON-1 1 39427U 13066M 26036.17516100 .00005889 00000+0 71601-3 0 9996 2 39427 97.8316 309.0154 0089990 305.2149 54.0663 14.80978628654543 GOMX-1 1 39430U 13066Q 26036.19843229 .00002769 00000+0 42275-3 0 9996 2 39430 97.6572 244.9275 0130420 140.8847 220.1878 14.68951274650536 CUBEBUG-2 (LO-74) 1 39440U 13066AA 26036.12015737 .00006378 00000+0 60411-3 0 9997 2 39440 97.8774 344.7644 0060650 104.6678 256.1274 14.92558288657282 NEE-02 KRYSAOR 1 39441U 13066AB 26035.38449583 .00002861 00000+0 32080-3 0 9999 2 39441 97.8788 335.6990 0067814 143.9873 216.5939 14.85954789656479 FUNCUBE-1 (AO-73) 1 39444U 13066AE 26035.85259501 .00012699 00000+0 83378-3 0 9999 2 39444 97.8143 4.8634 0036210 295.2268 64.5207 15.07236015659711 UWE-3 1 39446U 13066AG 26036.15542270 .00009101 00000+0 79974-3 0 9994 2 39446 97.8556 351.5844 0051794 41.6077 318.9067 14.95748609657835 BRITE-CA1 (TORONTO) 1 40020U 14033L 26036.07786864 .00001248 00000+0 19590-3 0 9991 2 40020 97.9524 167.6313 0078557 340.7751 19.0496 14.72374704622772 DUCHIFAT-1 1 40021U 14033M 26036.05195958 .00059277 00000+0 12084-2 0 9993 2 40021 98.0699 78.7287 0006076 178.7722 181.3541 15.46009571635221 NANOSATC-BR1 1 40024U 14033Q 26036.03135653 .00023565 00000+0 89504-3 0 9993 2 40024 98.0866 57.0744 0002046 296.5943 63.5084 15.26825699633782 QB50P1 1 40025U 14033R 26035.97480409 .00013365 00000+0 70305-3 0 9994 2 40025 98.0993 38.0722 0007955 329.7618 30.3153 15.15768804632983 QB50P2 1 40032U 14033Y 26035.93356392 .00012084 00000+0 68765-3 0 9995 2 40032 98.0695 24.8330 0005662 265.6881 94.3702 15.13003443632654 PERSEUS-M2 1 40037U 14033AD 26036.16713028 .00003430 00000+0 31883-3 0 9995 2 40037 97.9828 344.1911 0012659 23.3875 336.7918 14.94991668631052 PERSEUS-M1 1 40039U 14033AF 26036.08222795 .00002819 00000+0 26254-3 0 9990 2 40039 97.9521 338.2061 0012333 22.4627 337.7130 14.95071951630891 POLYITAN-1 1 40042U 14033AJ 26036.01375554 .00026701 00000+0 97413-3 0 9990 2 40042 98.1065 50.2082 0005924 242.8106 117.2528 15.28116063633372 TIGRISAT 1 40043U 14033AK 26036.17139590 .00004635 00000+0 54356-3 0 9997 2 40043 97.7613 189.4107 0050611 146.6792 213.7626 14.84526718626034 AEROCUBE 6A 1 40045U 14033AM 26035.43392722 .00007696 00000+0 67411-3 0 9991 2 40045 97.7085 204.0519 0040577 99.5931 260.9879 14.96323285626751 AEROCUBE 6B 1 40046U 14033AN 26035.96195544 .00010496 00000+0 88587-3 0 9992 2 40046 97.7079 204.1038 0039388 89.6834 270.8901 14.97703384626953 CANX-4 1 40055U 14034C 26036.07862866 .00001528 00000+0 20454-3 0 9999 2 40055 98.3321 266.4056 0014125 76.7577 283.5208 14.80972562624973 CANX-5 1 40056U 14034D 26036.07856808 .00001523 00000+0 20375-3 0 9996 2 40056 98.3325 266.4412 0014125 76.8956 283.3831 14.80988973615788 UKUBE-1 1 40074U 14037F 26035.91234523 .00014275 00000+0 85703-3 0 9999 2 40074 98.4200 25.5705 0000636 134.5007 225.6272 15.11046870628565 BRITE-PL2 (HEWELIUSZ) 1 40119U 14049B 26036.12481166 .00004035 00000+0 38327-3 0 9996 2 40119 97.8983 147.2740 0014098 182.2590 177.8568 14.94000533621724 AEROCUBE 5C 1 40965U 15058B 26036.17502998 .00004088 00000+0 36726-3 0 9997 2 40965 64.7691 313.0146 0132724 115.2654 246.2281 14.90586305345974 AEROCUBE 7 1 40966U 15058C 26036.13343815 .00005722 00000+0 46829-3 0 9996 2 40966 64.7633 298.0773 0122877 114.6093 246.7881 14.94526686346216 FOX-1A (AO-85) 1 40967U 15058D 26035.97753543 .00004216 00000+0 38532-3 0 9990 2 40967 64.7775 329.5811 0130465 108.8848 252.6462 14.90089308 93864 SINOD-D 1 1 40968U 15058E 26035.92539602 .00006143 00000+0 50435-3 0 9991 2 40968 64.7770 312.7308 0118912 106.5529 254.8686 14.94672575 96884 SNAP-3 ALICE 1 40970U 15058G 26036.13875985 .00073769 00000+0 18004-2 0 9998 2 40970 64.7578 192.7280 0038400 90.7467 269.8069 15.39657972 96432 LMRST-SAT 1 40971U 15058H 26036.03411829 .00004021 00000+0 36980-3 0 9990 2 40971 64.7781 325.4996 0132772 110.7679 250.7717 14.89722490 93868 SNAP-3 EDDIE 1 40972U 15058J 26036.15679704 .00077479 00000+0 18264-2 0 9993 2 40972 64.7500 184.2580 0040287 94.6038 265.9702 15.40606071 98564 PROPCUBE 3 1 40973U 15058K 26036.11864531 .00005195 00000+0 43911-3 0 9998 2 40973 64.7701 304.8495 0125572 112.6499 248.7951 14.93194979 95070 BISONSAT 1 40974U 15058L 26036.17715571 .00017319 00000+0 91372-3 0 9999 2 40974 64.7588 239.4018 0081655 106.2854 254.7270 15.12787675 95620 SNAP-3 JIMI 1 40975U 15058M 26036.04809101 .00008592 00000+0 61107-3 0 9995 2 40975 64.7648 277.3454 0107853 110.1441 251.1317 15.00598589 94384 PROPCUBE 1 (FLORA) 1 40976U 15058N 26036.13765553 .00003727 00000+0 35675-3 0 9994 2 40976 64.7772 344.2399 0131860 112.9184 248.5907 14.88397370 96606 SINOD-D 3 1 40977U 15058P 26035.99082372 .00005595 00000+0 48175-3 0 9993 2 40977 64.7748 328.2767 0120399 111.2667 250.1353 14.92861672 95018 HORYU-4 1 41340U 16012D 26036.02940089 .00088719 00000+0 11494-2 0 9994 2 41340 30.9925 295.4710 0002225 48.0307 312.0533 15.57485892550004 RAVAN 1 41849U 16067B 26036.12551505 .00048084 00000+0 10692-2 0 9990 2 41849 98.0095 271.5315 0008039 102.3942 257.8204 15.43483618507254 CELTEE 1 1 41850U 16067C 26036.06084067 .00008903 00000+0 43983-3 0 9995 2 41850 98.0846 253.6033 0001379 40.1370 319.9963 15.18125531505824 OPTICUBE 04 1 41851U 16067D 26036.01960596 .00003802 00000+0 24457-3 0 9999 2 41851 98.0818 241.3404 0015217 199.9144 160.1491 15.08970653505237 AEROCUBE 8D 1 41852U 16067E 26036.06469112 .00012383 00000+0 54154-3 0 9994 2 41852 98.0863 256.2301 0002421 217.9095 142.1969 15.22234130505956 AEROCUBE 8C 1 41853U 16067F 26036.04405631 .00012080 00000+0 52490-3 0 9994 2 41853 98.0727 253.6127 0005944 145.6494 214.5126 15.22447385505942 CORVUS BC2 1 42846U 17042X 26035.95881729 .00005732 00000+0 40431-3 0 9994 2 42846 97.3883 202.6498 0012922 200.3677 159.7037 15.05273567467163 CORVUS BC1 1 42847U 17042Y 26036.03686284 .00004568 00000+0 32095-3 0 9997 2 42847 97.3924 203.4456 0012205 173.8132 186.3248 15.05533573467208 MAKERSAT 0 1 43016U 17073D 26036.13262380 .00032029 00000+0 10001-2 0 9993 2 43016 97.4835 278.0304 0121923 21.5598 339.0711 15.26070765446281 SIRION PATHFINDER-2 1 43759U 18099B 26035.72300835 .00006406 00000+0 36485-3 0 9993 2 43759 97.4454 87.9241 0010075 46.2831 313.9233 15.13114133392585 CORVUS BC4 1 43767U 18099K 26036.15276472 .00006851 00000+0 41065-3 0 9993 2 43767 97.4261 82.9742 0010063 96.5384 263.6992 15.11243888392456 SPACEBEE-7 1 43816U 18099BL 26035.96527458 .00338305 00000+0 20168-2 0 9991 2 43816 97.4581 119.9284 0004610 291.8570 68.2205 15.76975463394018 SHIELDS 1 1 43850U 18104B 26035.98702669 .00822456 41503-3 64805-3 0 9996 2 43850 84.9934 223.4255 0003337 285.2564 74.8359 16.14770962399303 M2 PATHFINDER 1 45727U 20037E 26035.48161262 .00004477 00000+0 32890-3 0 9999 2 45727 97.8127 225.2472 0010966 240.2049 119.8086 15.03925602305541 NETSAT-4 1 46504U 20068U 26035.96516692 .00025052 00000+0 64942-3 0 9996 2 46504 97.8625 34.0588 0008484 78.2755 281.9441 15.38980952295403 NETSAT-3 1 46505U 20068V 26035.92673713 .00025355 00000+0 68724-3 0 9999 2 46505 97.8653 32.4332 0008401 90.6175 269.6031 15.37602793295329 NETSAT-1 1 46506U 20068W 26035.95008898 .00018941 00000+0 63548-3 0 9991 2 46506 97.8718 28.2290 0007949 104.7344 255.4777 15.30910433295044 NETSAT-2 1 46507U 20068X 26035.94069784 .00030093 00000+0 75674-3 0 9997 2 46507 97.8640 33.5754 0007063 99.6111 260.5932 15.39884398295346 WILDTRACKCUBE-SIMBA 1 47941U 21022K 26036.19099633 .00352077 00000+0 14327-2 0 9991 2 47941 97.3990 315.4023 0008596 121.0827 239.1288 15.85263004270658 GREENCUBE (IO-117) 1 53109U 22080E 26035.27077889 -.00000003 00000+0 00000+0 0 9996 2 53109 70.1642 344.4657 0009171 317.2122 42.7823 6.42583173 83522 SITRO-AIS 5 (KATYS) 1 57176U 23091L 26036.16830037 .00018611 00000+0 72142-3 0 9991 2 57176 97.5247 99.0109 0011746 202.7170 157.3550 15.26128185144181 SITRO-AIS 6 (CHIRKIN) 1 57192U 23091AC 26036.21579476 .00010437 00000+0 43419-3 0 9995 2 57192 97.5249 98.7743 0011935 201.3733 158.7007 15.23897248144172 SITRO-AIS 8 (ANOKHIN) 1 57193U 23091AD 26036.19732844 .00022606 00000+0 82084-3 0 9995 2 57193 97.5239 100.1498 0011045 199.7211 160.3602 15.28257796144263 SITRO-AIS 7 (FARTUSHNIY) 1 57194U 23091AE 26036.19542845 .00009871 00000+0 41353-3 0 9999 2 57194 97.5250 98.6370 0011649 203.0389 157.0327 15.23679417144161 SITRO-AIS 10 (BURDAEV) 1 57199U 23091AK 26036.20238035 .00030032 00000+0 93209-3 0 9999 2 57199 97.5252 104.0052 0007699 175.5899 184.5412 15.33310079144501 SITRO-AIS 9 (SHCHUKIN) 1 57201U 23091AM 26036.19298757 .00029094 00000+0 91323-3 0 9999 2 57201 97.5252 103.8135 0007688 176.4877 183.6420 15.32957044144493 SITRO-AIS 12 (SMIRENNIY) 1 57204U 23091AQ 26036.20651065 .00030305 00000+0 94373-3 0 9994 2 57204 97.5261 104.2192 0007672 169.7167 190.4233 15.33201592144516 SITRO-AIS 11 (SHEFFER) 1 57208U 23091AU 26036.18657828 .00029149 00000+0 89902-3 0 9994 2 57208 97.5259 104.3735 0007625 169.2486 190.8920 15.33516788144522 SITRO-AIS 25 1 59066U 24039R 26036.20307662 .00007284 00000+0 57566-3 0 9999 2 59066 95.3955 144.4471 0149529 69.5438 292.1769 14.92327062105035 SITRO-AIS 26 1 59067U 24039S 26036.18746162 .00007847 00000+0 62233-3 0 9991 2 59067 95.3957 144.3594 0149912 70.0568 291.6734 14.92146316105026 SITRO-AIS 27 1 59068U 24039T 26036.19333653 .00007912 00000+0 62243-3 0 9994 2 59068 95.3958 144.5769 0149010 68.9473 292.7614 14.92533303105041 SITRO-AIS 28 1 59071U 24039U 26036.24086848 .00008445 00000+0 66380-3 0 9993 2 59071 95.3956 144.6496 0148861 68.6702 293.0338 14.92567458105052 GRBBETA 1 60237U 24128C 26036.09750942 .00006571 00000+0 45565-3 0 9994 2 60237 61.9915 319.3047 0053988 107.4399 253.2605 15.05403849 86370 OOV-CUBE (TUBSAT-30) 1 60240U 24128F 26035.94472295 .00004187 00000+0 32283-3 0 9997 2 60240 61.9971 326.4546 0056713 105.4967 255.2396 15.02010305 86240 ROBUSTA-3A (MEDITERRAN*) 1 60243U 24128J 26035.94567732 .00013514 00000+0 82421-3 0 9994 2 60243 61.9884 315.1349 0054454 101.7493 258.9718 15.09403160 86447 LASARSAT 1 62391U 24247Q 26036.03726253 .00036194 00000+0 95287-3 0 9991 2 62391 44.9763 280.2137 0002290 210.7873 149.2879 15.37986438 62912 CROCUBE 1 62394U 24247T 26035.05048013 .00037479 00000+0 95880-3 0 9992 2 62394 44.9736 284.6104 0001896 179.5652 180.5237 15.38853125 62772